Theta_e
322 323 324 326 327 327 328 328 329 329 330 331 332 333 334 334 334 334 335 335 336 336 336 336 336 337 337 336 336 336 337 336 335 334 334 334 333 333 333 333 332 330
324 325 325 326 325 325 326 327 328 328 328 329 329 330 331 331 331 332 332 333 333 334 334 334 334 335 335 335 335 335 335 334 334 333 333 333 333 333 333 333 332 332
325 326 325 324 324 324 325 326 326 326 327 328 329 329 329 330 330 330 330 330 330 330 331 331 331 332 331 332 332 332 332 332 332 332 332 332 333 333 334 334 333 333
326 325 324 324 324 324 325 326 326 326 326 328 329 329 329 329 329 329 329 329 329 329 329 329 330 329 329 330 330 330 330 330 330 330 331 332 332 333 334 334 334 334
326 324 324 323 323 324 325 326 326 326 327 327 327 328 328 328 328 328 328 329 329 329 329 330 330 330 330 330 330 331 331 330 330 330 330 331 331 333 334 334 333 333
326 324 324 323 324 324 325 326 326 326 326 326 326 326 327 327 327 328 328 329 329 329 329 329 329 329 329 329 329 330 330 331 331 331 331 331 331 332 334 334 334 334
326 324 323 323 324 325 325 325 326 326 326 326 326 326 326 326 327 327 328 327 327 326 325 325 326 327 327 328 328 328 329 330 330 332 332 333 332 333 333 334 334 334
325 324 323 323 324 325 326 326 327 327 326 326 326 326 326 326 326 326 326 326 325 325 324 324 326 327 328 328 329 330 330 330 330 332 332 333 333 333 333 334 335 334
324 324 323 324 326 326 326 326 327 327 327 327 327 327 327 326 325 325 324 324 324 324 324 325 327 327 327 328 330 330 331 331 331 332 333 333 334 334 333 334 334 334
323 323 323 324 326 327 326 326 327 327 328 327 327 327 326 325 325 325 324 323 323 323 325 326 327 327 327 330 331 332 332 332 331 332 333 334 334 334 334 334 334 334
322 323 323 324 325 326 326 326 327 326 326 326 326 327 326 325 326 325 324 323 323 324 326 327 327 325 325 328 330 330 331 332 332 332 333 334 335 335 334 334 334 334
322 323 323 324 324 325 325 325 325 325 325 325 326 326 326 325 326 325 324 324 323 325 327 327 326 325 324 325 325 326 327 329 330 331 332 334 335 335 335 334 334 333
321 322 323 323 323 323 323 323 322 323 325 326 326 327 326 326 326 325 325 324 324 326 327 327 327 325 324 325 325 325 325 326 327 328 329 330 333 335 335 334 334 334
321 322 322 322 322 322 322 321 321 322 324 326 326 326 326 325 325 325 326 325 325 326 327 327 327 325 325 325 324 325 326 327 328 328 328 328 328 331 334 334 334 334
322 322 322 322 322 322 322 321 321 323 325 326 327 326 326 325 325 326 326 326 326 326 326 326 327 326 325 325 324 324 326 327 328 328 329 329 327 328 330 332 334 334
322 323 322 322 322 322 323 324 324 325 326 326 327 327 327 326 325 325 326 326 326 326 326 326 326 326 325 324 323 324 324 326 327 328 329 330 330 329 328 330 332 333
324 323 323 322 322 323 325 326 326 327 327 326 327 327 326 326 325 325 325 326 326 326 326 326 326 326 325 324 323 323 324 325 327 327 329 331 331 331 329 330 331 331
324 324 322 321 322 323 324 325 325 327 327 327 327 326 325 325 325 324 325 326 326 326 326 326 326 326 325 323 323 323 324 326 326 326 328 330 332 332 332 331 331 332
325 325 323 322 322 322 322 323 323 325 326 326 326 325 324 324 324 324 325 325 326 326 325 325 326 326 325 323 322 323 324 325 325 325 327 329 331 333 334 333 334 335
326 326 323 321 320 319 319 320 321 323 324 325 324 324 324 325 324 325 325 325 326 325 324 325 326 325 324 322 322 323 324 325 324 324 325 328 330 333 334 335 335 336
327 326 322 320 319 318 319 320 321 322 323 324 323 323 324 324 324 325 324 324 324 323 323 325 326 325 324 322 322 322 323 324 325 323 324 326 329 330 332 335 336 336
326 324 321 320 319 318 319 321 321 322 323 324 323 324 324 324 324 325 323 322 322 322 323 325 324 323 323 323 323 322 323 324 325 323 323 324 327 328 330 333 334 334
325 323 321 319 319 319 320 320 320 322 323 324 323 324 324 324 324 324 323 322 323 321 322 325 323 321 323 324 323 322 322 323 324 323 322 323 325 326 329 330 331 332
324 323 321 319 319 319 319 320 321 323 323 323 323 323 323 324 324 323 322 323 323 320 321 324 324 322 323 323 323 323 323 322 323 323 323 323 322 323 325 327 329 330
323 323 320 319 319 319 319 319 322 323 323 322 322 321 322 324 323 322 322 323 323 321 320 324 325 323 323 322 321 322 324 323 323 323 324 324 322 321 322 324 325 327
321 321 320 319 320 320 319 319 321 322 321 320 320 319 321 322 322 322 322 323 323 321 319 322 325 325 325 324 321 320 322 324 324 323 324 324 323 321 321 322 322 324
Wind_Speed
15 14 14 14 15 16 18 19 19 18 17 16 16 15 14 14 15 16 16 16 16 17 18 19 19 20 21 22 24 25 27 29 30 31 31 32 33 35 36 37 36 36
13 12 13 13 14 16 17 19 20 20 19 18 17 17 16 16 16 17 18 18 19 19 21 21 22 23 24 26 27 29 30 32 33 34 34 35 35 36 38 38 37 36
12 13 13 14 15 15 17 18 19 19 20 19 18 17 17 17 17 18 19 20 20 21 22 24 25 27 28 30 32 33 35 36 37 37 38 40 39 39 40 40 39 37
13 14 15 15 16 16 16 17 17 18 18 18 17 16 16 17 18 18 19 19 20 21 22 23 25 27 29 31 33 35 37 39 40 39 40 42 42 42 42 41 40 38
14 15 16 16 16 16 16 16 17 17 16 15 15 14 14 14 15 16 17 17 18 19 21 22 23 25 27 29 30 32 35 37 38 39 39 41 42 42 42 42 42 40
14 15 17 18 17 17 17 17 16 16 15 14 14 15 15 15 14 14 14 14 16 17 19 20 22 24 25 27 29 30 32 34 35 36 37 39 41 41 40 40 42 42
14 15 16 18 18 18 19 17 15 14 14 14 15 15 15 14 14 13 13 14 15 16 18 19 20 22 23 25 27 29 30 32 33 34 35 36 38 39 39 39 42 42
14 14 16 17 18 18 17 15 13 13 13 14 15 14 13 12 12 13 15 16 17 18 19 19 20 21 23 25 26 27 28 29 31 31 33 34 35 37 38 39 41 41
13 13 15 16 16 16 15 14 12 12 13 14 15 13 11 11 12 14 15 17 17 18 18 19 21 23 25 26 25 25 26 27 28 29 30 32 34 35 36 38 41 41
12 12 14 15 15 15 15 15 14 13 14 15 16 14 11 11 12 14 16 17 17 17 18 19 21 24 25 24 23 24 25 25 26 28 28 29 31 33 34 35 39 40
11 12 13 14 15 16 16 16 16 16 16 17 17 15 13 12 13 15 17 17 17 16 17 19 21 23 24 23 22 23 23 23 23 25 27 27 29 31 33 34 36 38
11 12 13 14 16 17 18 18 17 17 17 17 17 16 14 14 14 15 16 17 16 16 17 19 21 23 24 24 24 25 25 23 22 23 24 25 26 28 31 33 34 35
10 11 12 14 16 17 18 19 19 19 18 17 17 16 15 14 14 15 16 17 16 16 17 18 20 23 24 24 26 26 26 26 25 25 25 24 24 25 28 30 32 33
10 11 13 14 16 17 18 19 19 19 18 17 16 16 15 14 14 15 17 17 15 16 17 18 20 23 24 25 28 29 27 26 27 27 28 27 26 25 27 31 32 32
10 12 13 14 16 17 18 19 19 18 17 16 16 16 15 15 15 16 17 16 16 17 18 19 21 24 25 25 28 29 28 29 30 30 30 30 29 27 28 30 33 34
11 12 13 15 16 16 17 17 17 17 17 16 16 16 16 17 17 17 17 17 18 18 20 21 22 23 24 25 27 28 29 31 34 35 34 30 28 29 29 29 31 34
11 13 15 16 15 15 15 16 17 18 18 18 17 17 17 18 18 18 18 19 20 20 22 24 24 23 24 24 25 27 29 31 35 37 35 30 27 27 30 30 30 32
12 14 15 15 14 14 16 17 18 18 19 19 19 17 18 18 18 19 19 19 21 21 22 24 25 24 23 23 24 27 28 31 35 37 33 29 26 25 27 29 28 29
13 14 15 14 15 16 17 18 19 19 19 20 19 17 17 17 18 19 19 19 20 21 22 23 24 24 23 22 24 27 27 30 35 37 32 27 24 20 20 23 24 24
14 15 15 15 16 17 18 18 18 19 19 19 18 16 16 17 17 18 18 18 19 20 21 22 23 24 23 22 23 26 28 29 33 37 34 28 22 14 12 16 19 20
15 16 16 17 18 19 18 17 17 18 18 17 17 16 16 16 16 17 18 18 19 20 21 21 20 22 22 21 23 26 28 29 32 34 35 31 23 14 9 13 17 20
15 16 16 17 19 19 17 16 17 17 16 16 16 16 16 16 16 17 19 20 19 20 20 19 17 19 21 21 22 25 27 29 31 33 35 33 26 19 14 13 14 18
13 14 16 17 18 18 17 17 17 16 16 16 16 17 17 16 17 18 20 21 20 20 20 17 15 16 19 20 21 23 26 29 31 33 35 36 31 25 22 19 19 21
13 14 15 16 17 18 17 16 16 15 15 15 16 18 17 16 17 18 18 20 20 20 19 15 14 15 17 19 21 22 24 27 29 31 33 35 34 30 26 25 24 24
12 13 13 14 16 17 17 17 16 14 15 15 16 18 17 16 17 17 17 18 19 19 18 14 12 14 16 18 21 22 23 24 27 29 30 32 33 32 31 30 28 26
12 12 13 14 16 17 17 16 15 14 15 16 17 17 17 17 17 17 17 18 18 18 17 14 12 13 15 17 20 22 23 23 25 26 27 28 30 31 32 33 31 29
Wind_Direction
315 318 322 323 322 322 321 320 320 321 320 316 313 309 300 292 286 282 276 270 267 268 272 273 271 269 266 262 261 262 263 264 265 265 266 266 266 266 266 267 267 266
320 321 322 321 320 319 317 317 319 319 318 315 311 307 302 297 292 288 285 281 276 273 273 274 274 274 272 270 268 267 266 266 265 265 266 266 265 265 266 265 265 264
322 323 325 324 322 321 317 316 317 319 320 318 313 307 303 301 298 295 293 289 287 283 279 277 276 275 276 276 274 273 271 269 267 266 267 267 267 267 267 266 264 262
321 325 327 327 325 323 318 316 317 320 321 322 320 314 306 302 300 299 298 295 292 290 286 284 280 278 277 277 276 275 273 271 270 268 268 267 266 265 265 265 263 260
321 326 327 327 325 323 320 319 320 320 322 324 325 322 315 309 305 302 299 297 295 292 290 288 286 284 281 280 279 277 276 274 272 270 268 266 266 264 262 262 262 259
321 324 325 324 324 323 322 322 323 322 322 324 325 322 319 317 314 308 302 298 297 296 295 293 291 290 288 286 284 282 280 277 275 273 270 267 266 263 260 259 259 258
320 321 322 323 324 323 322 321 320 320 320 321 322 320 318 318 316 311 307 305 304 305 305 303 300 298 296 294 291 286 282 279 276 274 272 270 267 264 260 257 256 256
317 318 320 323 326 327 327 324 320 319 319 319 321 320 315 313 312 309 307 307 309 311 313 314 312 310 308 305 300 293 285 279 275 273 271 269 267 264 261 256 254 254
315 317 320 324 328 333 337 336 329 324 321 320 322 321 313 308 307 306 305 305 308 313 317 320 320 318 317 313 307 301 293 285 278 275 273 270 266 263 261 258 255 253
312 315 320 326 330 336 342 345 341 333 328 323 320 316 310 307 308 310 309 307 309 315 320 323 324 324 324 319 311 305 299 291 283 279 277 273 268 263 260 258 257 255
309 313 318 325 330 334 339 344 343 338 332 325 319 312 303 302 312 317 316 312 313 317 320 323 327 330 331 326 319 312 305 296 288 284 282 277 271 265 258 255 257 258
307 311 316 322 328 331 333 336 337 334 331 326 322 317 305 300 307 317 321 320 317 318 319 322 330 336 336 332 327 324 318 310 301 294 290 282 273 266 260 257 256 257
305 310 316 321 325 327 328 329 330 328 325 322 321 321 314 305 303 312 324 327 324 323 323 324 333 338 337 333 330 328 325 319 313 307 300 291 280 270 263 260 257 256
302 310 315 319 322 324 325 325 325 323 319 317 318 319 319 315 309 313 325 333 335 335 332 330 335 338 336 332 331 331 329 326 322 317 309 299 289 277 266 262 260 256
298 308 314 317 319 321 322 322 321 318 315 314 316 317 318 318 318 319 323 328 333 337 337 336 338 339 337 333 332 333 331 329 328 325 318 307 294 282 271 264 261 258
299 308 312 315 317 318 317 317 316 314 312 312 314 316 316 316 317 319 319 319 323 330 334 337 338 338 337 336 335 334 333 332 332 330 326 315 297 284 275 267 261 259
306 311 312 313 315 313 311 313 315 313 312 313 313 314 316 315 315 317 317 315 317 323 330 334 336 337 338 339 339 338 337 337 338 337 333 323 306 287 276 271 267 263
309 313 313 311 308 306 306 311 315 315 316 316 313 311 312 314 315 317 317 315 314 319 327 332 335 337 339 342 343 342 342 343 345 346 339 324 311 295 278 272 269 265
309 311 310 307 305 305 306 309 312 315 318 318 313 309 309 313 317 319 320 317 314 318 326 332 336 338 339 343 347 347 346 346 350 354 347 327 312 303 288 280 278 274
308 307 305 302 304 307 308 309 311 314 317 317 312 308 309 315 320 324 327 325 320 321 326 332 337 339 339 345 351 351 348 348 353 359 357 340 322 311 290 278 277 277
306 305 302 301 305 309 310 311 312 312 314 312 309 308 313 319 323 328 334 333 327 324 327 332 339 341 342 348 354 353 352 353 356 3 6 356 343 340 318 286 277 275
303 303 302 306 311 312 312 312 312 312 311 309 308 311 317 320 321 326 332 332 328 323 323 332 344 345 345 351 355 353 354 357 359 6 12 8 3 14 14 343 320 308
298 300 304 310 315 315 313 311 311 311 311 311 313 316 321 321 319 324 332 334 332 325 321 329 347 350 349 354 356 353 356 359 0 5 12 12 10 19 27 20 12 1
291 296 303 310 315 319 319 316 314 315 316 319 319 320 322 320 318 324 332 336 337 330 321 326 344 350 353 359 359 356 357 1 1 2 8 11 11 16 23 24 20 14
288 292 299 308 315 320 322 320 319 318 320 323 322 320 320 318 318 324 329 334 338 334 325 325 338 349 356 3 4 1 0 3 3 2 5 8 10 14 19 21 18 15
285 289 295 304 311 316 320 320 318 317 320 322 321 320 320 319 318 320 323 329 337 336 327 322 329 343 352 359 2 3 4 6 5 2 3 6 10 14 17 16 15 16